Weather Roundup
Issued by NWS Chicago, IL

Home | Current Version | Previous Version | Text Only | Print | Product List | Glossary On
Versions: 1 2 3 4 5 6 7 8 9 10 11 12 13 14 15 16 17 18 19 20 21 22 23 24 25 26 27 28 29 30 31 32 33 34 35 36 37 38 39 40 41 42 43 44 45 46 47 48 49 50
000
NZUS59 KLOT 240809
HRRLOT

CHICAGO AREA WEATHER ROUNDUP
NATIONAL WEATHER SERVICE CHICAGO/ROMEOVILLE IL
300 AM CDT TUE OCT 24 2017

NOTE: "FAIR" INDICATES FEW OR NO CLOUDS BELOW 12,000 FEET WITH NO
SIGNIFICANT WEATHER AND/OR OBSTRUCTIONS TO VISIBILITY.

* THESE STATIONS ARE NOT UNDER NWS QUALITY CONTROL. THEY ALSO MAY NOT
  REPORT WEATHER SUCH AS PRECIPITATION OR FOG.

ILZ005-006-012>014-019>023-240900-
NORTHEAST ILLINOIS

CITY           SKY/WX    TMP DP  RH WIND       PRES   REMARKS
OHARE          LGT RAIN  48  45  89 W10       29.54F
MIDWAY         LGT RAIN  49  47  93 W10       29.55F FOG
AURORA         CLOUDY    47  45  93 W10       29.58F
LANSING*       DRIZZLE   48  47  97 W12       29.57F
JOLIET*        CLOUDY    49  46  88 W6        29.59S
WAUKEGAN       LGT RAIN  48  47  96 W5        29.50F
DUPAGE AIRPORT LGT RAIN  47  46  97 W12       29.55F
WHEELING       LGT RAIN  49  47  93 W12       29.54F
KANKAKEE*      CLOUDY    47  44  87 W14       29.61F
MORRIS*        CLOUDY    48  44  87 W10       29.59F
LEWIS AIRPORT* CLOUDY    47  45  91 W10       29.58F
NORTHERLY ISL    N/A     49  46  90 W10         N/A
$$

WIZ051-052-058>065-066-070>072-240900-
SOUTHEAST WISCONSIN

CITY           SKY/WX    TMP DP  RH WIND       PRES   REMARKS
MILWAUKEE      LGT RAIN  51  49  92 W7        29.48F
KENOSHA*       LGT RAIN  49  46  90 W9        29.50F
RACINE*        CLOUDY    49  47  93 W9        29.50F
BURLINGTON     LGT RAIN  47  47 100 W8        29.50F
WAUKESHA       RAIN      45  45 100 W8        29.50F
WEST BEND      DRIZZLE   46  46 100 NW6       29.48F
$$

INZ001>003-010>013-019-020-240900-
NORTHWEST INDIANA

CITY           SKY/WX    TMP DP  RH WIND       PRES   REMARKS
GARY*          LGT RAIN  50  48  92 SW6       29.56F
MICHIGAN CITY* NOT AVBL
RENSSELAER*    NOT AVBL
VALPARAISO     LGT RAIN  50  48  93 W10       29.56F
$$

LMZ740>746-240900-
SOUTHERN LAKE MICHIGAN

STATION/POSITION TIME  SKY/WX   TEMP WIND        PRES    VSBY
                                AIR  DIR/SP/G
                 (UTC)          (F)  (DEG/KT/KT) (MB)    (MI)
HARRISON CRIB    0740            50  270/ 17/ 19   N/A
BURNHAM HARBOR   0800            49  260/  8/ 11   N/A
CALUMET HARBOR   0748            49  240/  6/  9 1000.2F
BURNS HARBOR     0740            51  260/ 15/ 20 1001.0F
MICHIGAN CITY    0740            51  240/ 24/ 27   N/A
$$

ABBREVIATIONS USED IN REMARKS
   TC - TEMPERATURE IN CELSIUS
  WCI - WIND CHILL INDEX
   HX - HEAT INDEX
  VSB - VISIBILITY
$$



USA.gov is the U.S. government's official web portal to all federal, state and local government web resources and services.